Flag for Switzerland Weather past 2 weeks in La-Chaux-de-Fonds, Neuchâtel, Switzerland

48 °F


Feels Like: 44 °F
Forecast: 42 / 49 °F
Wind: 10 mph from Northeast

Location: Les Eplatures

Current Time: Oct 10, 2015 at 6:13:50 PM

Latest Report: Oct 10, 2015 at 5:20 PM

Visibility: N/A

Pressure: 29.89 "Hg (26.48 "Hg at 1000m altitude)

Humidity: 82%

Dew point: 43 °F

Location of La-Chaux-de-FondsLocation

Historic Weather in La-Chaux-de-Fonds — Graph


La-Chaux-de-Fonds temperature yesterday

Maximum temperature yesterday: 57 °F (at 3:50 PM)
Minimum temperature yesterday: 41 °F (at 6:20 AM)
Average temperature yesterday: 47 °F

Past Weeks' High & Low Weather Summary

High66 °F (Oct 5, 1:50 PM)100% (Sep 26, 1:50 AM)30.36 "Hg (Sep 26, 1:50 AM)
Low34 °F (Sep 30, 6:20 AM)42% (Oct 2, 3:20 PM)29.80 "Hg (Oct 6, 7:20 AM)
Average49 °F79%30.12 "Hg
* Reported Sep 25 4:20 PM — Oct 10 4:50 PM, La-Chaux-de-Fonds, Weather by CustomWeather, © 2015

Note: Actual official high and low records may vary slightly from our data, if they occured in-between our weather recording intervals... More about our weather records


La-Chaux-de-Fonds weather history for previous 24 hours

Time TempWeatherWind HumidityBarometerVisibility
4:50 PM
Sat, Oct 10
48 °FLow clouds.9 mph82%29.89 "HgN/A
4:20 PM48 °FOvercast.9 mph87%29.89 "HgN/A
3:50 PM50 °FPartly sunny.8 mph82%29.89 "HgN/A
3:20 PM50 °FPartly sunny.8 mph88%29.89 "HgN/A
2:50 PM50 °FPartly sunny.6 mph82%29.92 "HgN/A
2:20 PM50 °FPartly sunny.6 mph88%29.92 "HgN/A
1:50 PM50 °FPartly sunny.7 mph82%29.92 "HgN/A
1:20 PM52 °FPartly sunny.5 mph82%29.92 "HgN/A
12:50 PM52 °FPartly sunny.7 mph82%29.95 "HgN/A
12:20 PM52 °FPartly sunny.6 mph82%29.95 "HgN/A
11:50 AM48 °FPartly sunny.3 mph87%29.95 "Hg5 mi
11:20 AM48 °FPartly sunny.3 mph94%29.95 "HgN/A
10:50 AM46 °FLow clouds.2 mph93%29.95 "Hg5 mi
10:20 AM46 °FPartly sunny.2 mph93%29.95 "Hg6 mi
9:50 AM45 °FLow clouds.3 mph100%29.98 "Hg5 mi
9:20 AM43 °FFog.2 mph100%29.98 "Hg2 mi
8:50 AM39 °FFog.2 mph100%29.98 "Hg1 mi
8:20 AM37 °FFog.1 mph100%29.98 "Hg0 mi
7:50 AM36 °FFog.1 mph100%29.98 "Hg4 mi
7:20 AM37 °FChilly.1 mph100%29.98 "Hg4 mi
6:50 AM37 °FChilly.1 mph93%29.98 "Hg6 mi
6:20 AM36 °FClear.1 mph100%29.98 "Hg10 mi
5:50 AM37 °FClear.1 mph93%29.98 "Hg10 mi
5:20 AM37 °FClear.1 mph93%30.01 "Hg10 mi
4:50 AM37 °FClear.No wind100%30.01 "Hg10 mi
4:20 AM37 °FClear.1 mph100%30.01 "Hg10 mi
3:50 AM39 °FClear.1 mph93%30.01 "Hg10 mi
3:20 AM39 °FChilly.1 mph93%30.01 "Hg5 mi
2:50 AM41 °FClear.1 mph93%30.01 "Hg10 mi
2:20 AM41 °FClear.1 mph93%30.01 "Hg10 mi
1:50 AM43 °FClear.1 mph93%30.01 "Hg10 mi
1:20 AM45 °FClear.2 mph87%30.04 "Hg10 mi
12:50 AM43 °FClear.1 mph93%30.04 "Hg10 mi
12:20 AM43 °FClear.2 mph93%30.04 "Hg10 mi
11:20 PM
Fri, Oct 9
43 °FClear.1 mph93%30.04 "Hg10 mi
10:50 PM41 °FQuite cool.1 mph93%30.07 "Hg5 mi
10:20 PM43 °FClear.1 mph93%30.07 "Hg10 mi
9:50 PM46 °FClear.3 mph87%30.07 "Hg10 mi
9:20 PM46 °FCool.2 mph93%30.07 "HgN/A
8:50 PM46 °FScattered clouds.2 mph93%30.07 "HgN/A
8:20 PM48 °FOvercast.2 mph87%30.07 "HgN/A
7:50 PM50 °FPartly sunny.3 mph82%30.07 "HgN/A
7:20 PM50 °FBroken clouds.3 mph82%30.07 "HgN/A
6:50 PM52 °FPartly sunny.3 mph77%30.07 "HgN/A
6:20 PM54 °FPartly sunny.2 mph77%30.07 "HgN/A
Weather by CustomWeather, © 2015

See weather overviewHow to use our weather pages